Location: Ernsee
(50.8780°N, 12.0389°E)
Time: 19:50:20
(UTC+00:00)

STARLINK-80 - Pass Details

Date: 20 January 2020
Orbit: 491 x 494 km, 53.0° (Epoch: 21 February)

Event Time Altitude Azimuth Distance (km) Brightness Sun altitude
Exits shadow 05:50:00 15° 266° (W) 1,384 5.1 -11.4°
Maximum altitude 05:53:01 70° 349° (NNW) 528 3.4 -11.0°
Drops below altitude 10° 05:56:50 10° 74° (ENE) 1,687 7.0 -10.4°
Sets 05:59:01 0° 76° (ENE) 2,570 8.1 -10.1°
